Year,Month,Day,Hour,Minute,Value (Times are PST for insolation in W/m^2)
2009,11,10,00,00,0.00
2009,11,10,00,01,0.00
2009,11,10,00,02,0.00
2009,11,10,00,03,0.00
2009,11,10,00,04,0.00
2009,11,10,00,05,0.00
2009,11,10,00,06,0.00
2009,11,10,00,07,0.00
2009,11,10,00,08,0.00
2009,11,10,00,09,0.00
2009,11,10,00,10,0.00
2009,11,10,00,11,0.00
2009,11,10,00,12,0.00
2009,11,10,00,13,0.00
2009,11,10,00,14,0.00
2009,11,10,00,15,0.00
2009,11,10,00,16,0.00
2009,11,10,00,17,0.00
2009,11,10,00,18,0.00
2009,11,10,00,19,0.00
2009,11,10,00,20,0.00
2009,11,10,00,21,0.00
2009,11,10,00,22,0.00
2009,11,10,00,23,0.00
2009,11,10,00,24,0.00
2009,11,10,00,25,0.00
2009,11,10,00,26,0.00
2009,11,10,00,27,0.00
2009,11,10,00,28,0.00
2009,11,10,00,29,0.00
2009,11,10,00,30,0.00
2009,11,10,00,31,0.00
2009,11,10,00,32,0.00
2009,11,10,00,33,0.00
2009,11,10,00,34,0.00
2009,11,10,00,35,0.00
2009,11,10,00,36,0.00
2009,11,10,00,37,0.00
2009,11,10,00,38,0.00
2009,11,10,00,39,0.00
2009,11,10,00,40,0.00
2009,11,10,00,41,0.00
2009,11,10,00,42,0.00
2009,11,10,00,43,0.00
2009,11,10,00,44,0.00
2009,11,10,00,45,0.00
2009,11,10,00,46,0.00
2009,11,10,00,47,0.00
2009,11,10,00,48,0.00
2009,11,10,00,49,0.00
2009,11,10,00,50,0.00
2009,11,10,00,51,0.00
2009,11,10,00,52,0.00
2009,11,10,00,53,0.00
2009,11,10,00,54,0.00
2009,11,10,00,55,0.00
2009,11,10,00,56,0.00
2009,11,10,00,57,0.00
2009,11,10,00,58,0.00
2009,11,10,00,59,0.00
2009,11,10,01,00,0.00
2009,11,10,01,01,0.00
2009,11,10,01,02,0.00
2009,11,10,01,03,0.00
2009,11,10,01,04,0.00
2009,11,10,01,05,0.00
2009,11,10,01,06,0.00
2009,11,10,01,07,0.00
2009,11,10,01,08,0.00
2009,11,10,01,09,0.00
2009,11,10,01,10,0.00
2009,11,10,01,11,0.00
2009,11,10,01,12,0.00
2009,11,10,01,13,0.00
2009,11,10,01,14,0.00
2009,11,10,01,15,0.00
2009,11,10,01,16,0.00
2009,11,10,01,17,0.00
2009,11,10,01,18,0.00
2009,11,10,01,19,0.00
2009,11,10,01,20,0.00
2009,11,10,01,21,0.00
2009,11,10,01,22,0.00
2009,11,10,01,23,0.00
2009,11,10,01,24,0.00
2009,11,10,01,25,0.00
2009,11,10,01,26,0.00
2009,11,10,01,27,0.00
2009,11,10,01,28,0.00
2009,11,10,01,29,0.00
2009,11,10,01,30,0.00
2009,11,10,01,31,0.00
2009,11,10,01,32,0.00
2009,11,10,01,33,0.00
2009,11,10,01,34,0.00
2009,11,10,01,35,0.00
2009,11,10,01,36,0.00
2009,11,10,01,37,0.00
2009,11,10,01,38,0.00
2009,11,10,01,39,0.00
2009,11,10,01,40,0.00
2009,11,10,01,41,0.00
2009,11,10,01,42,0.00
2009,11,10,01,43,0.00
2009,11,10,01,44,0.00
2009,11,10,01,45,0.00
2009,11,10,01,46,0.00
2009,11,10,01,47,0.00
2009,11,10,01,48,0.00
2009,11,10,01,49,0.00
2009,11,10,01,50,0.00
2009,11,10,01,51,0.00
2009,11,10,01,52,0.00
2009,11,10,01,53,0.00
2009,11,10,01,54,0.00
2009,11,10,01,55,0.00
2009,11,10,01,56,0.00
2009,11,10,01,57,0.00
2009,11,10,01,58,0.00
2009,11,10,01,59,0.00
2009,11,10,02,00,0.00
2009,11,10,02,01,0.00
2009,11,10,02,02,0.00
2009,11,10,02,03,0.00
2009,11,10,02,04,0.00
2009,11,10,02,05,0.00
2009,11,10,02,06,0.00
2009,11,10,02,07,0.00
2009,11,10,02,08,0.00
2009,11,10,02,09,0.00
2009,11,10,02,10,0.00
2009,11,10,02,11,0.00
2009,11,10,02,12,0.00
2009,11,10,02,13,0.00
2009,11,10,02,14,0.00
2009,11,10,02,15,0.00
2009,11,10,02,16,0.00
2009,11,10,02,17,0.00
2009,11,10,02,18,0.00
2009,11,10,02,19,0.00
2009,11,10,02,20,0.00
2009,11,10,02,21,0.00
2009,11,10,02,22,0.00
2009,11,10,02,23,0.00
2009,11,10,02,24,0.00
2009,11,10,02,25,0.00
2009,11,10,02,26,0.00
2009,11,10,02,27,0.00
2009,11,10,02,28,0.00
2009,11,10,02,29,0.00
2009,11,10,02,30,0.00
2009,11,10,02,31,0.00
2009,11,10,02,32,0.00
2009,11,10,02,33,0.00
2009,11,10,02,34,0.00
2009,11,10,02,35,0.00
2009,11,10,02,36,0.00
2009,11,10,02,37,0.00
2009,11,10,02,38,0.00
2009,11,10,02,39,0.00
2009,11,10,02,40,0.00
2009,11,10,02,41,0.00
2009,11,10,02,42,0.00
2009,11,10,02,43,0.00
2009,11,10,02,44,0.00
2009,11,10,02,45,0.00
2009,11,10,02,46,0.00
2009,11,10,02,47,0.00
2009,11,10,02,48,0.00
2009,11,10,02,49,0.00
2009,11,10,02,50,0.00
2009,11,10,02,51,0.00
2009,11,10,02,52,0.00
2009,11,10,02,53,0.00
2009,11,10,02,54,0.00
2009,11,10,02,55,0.00
2009,11,10,02,56,0.00
2009,11,10,02,57,0.00
2009,11,10,02,58,0.00
2009,11,10,02,59,0.00
2009,11,10,03,00,0.00
2009,11,10,03,01,0.00
2009,11,10,03,02,0.00
2009,11,10,03,03,0.00
2009,11,10,03,04,0.00
2009,11,10,03,05,0.00
2009,11,10,03,06,0.00
2009,11,10,03,07,0.00
2009,11,10,03,08,0.00
2009,11,10,03,09,0.00
2009,11,10,03,10,0.00
2009,11,10,03,11,0.00
2009,11,10,03,12,0.00
2009,11,10,03,13,0.00
2009,11,10,03,14,0.00
2009,11,10,03,15,0.00
2009,11,10,03,16,0.00
2009,11,10,03,17,0.00
2009,11,10,03,18,0.00
2009,11,10,03,19,0.00
2009,11,10,03,20,0.00
2009,11,10,03,21,0.00
2009,11,10,03,22,0.00
2009,11,10,03,23,0.00
2009,11,10,03,24,0.00
2009,11,10,03,25,0.00
2009,11,10,03,26,0.00
2009,11,10,03,27,0.00
2009,11,10,03,28,0.00
2009,11,10,03,29,0.00
2009,11,10,03,30,0.00
2009,11,10,03,31,0.00
2009,11,10,03,32,0.00
2009,11,10,03,33,0.00
2009,11,10,03,34,0.00
2009,11,10,03,35,0.00
2009,11,10,03,36,0.00
2009,11,10,03,37,0.00
2009,11,10,03,38,0.00
2009,11,10,03,39,0.00
2009,11,10,03,40,0.00
2009,11,10,03,41,0.00
2009,11,10,03,42,0.00
2009,11,10,03,43,0.00
2009,11,10,03,44,0.00
2009,11,10,03,45,0.00
2009,11,10,03,46,0.00
2009,11,10,03,47,0.00
2009,11,10,03,48,0.00
2009,11,10,03,49,0.00
2009,11,10,03,50,0.00
2009,11,10,03,51,0.00
2009,11,10,03,52,0.00
2009,11,10,03,53,0.00
2009,11,10,03,54,0.00
2009,11,10,03,55,0.00
2009,11,10,03,56,0.00
2009,11,10,03,57,0.00
2009,11,10,03,58,0.00
2009,11,10,03,59,0.00
2009,11,10,04,00,0.00
2009,11,10,04,01,0.00
2009,11,10,04,02,0.00
2009,11,10,04,03,0.00
2009,11,10,04,04,0.00
2009,11,10,04,05,0.00
2009,11,10,04,06,0.00
2009,11,10,04,07,0.00
2009,11,10,04,08,0.00
2009,11,10,04,09,0.00
2009,11,10,04,10,0.00
2009,11,10,04,11,0.00
2009,11,10,04,12,0.00
2009,11,10,04,13,0.00
2009,11,10,04,14,0.00
2009,11,10,04,15,0.00
2009,11,10,04,16,0.00
2009,11,10,04,17,0.00
2009,11,10,04,18,0.00
2009,11,10,04,19,0.00
2009,11,10,04,20,0.00
2009,11,10,04,21,0.00
2009,11,10,04,22,0.00
2009,11,10,04,23,0.00
2009,11,10,04,24,0.00
2009,11,10,04,25,0.00
2009,11,10,04,26,0.00
2009,11,10,04,27,0.00
2009,11,10,04,28,0.00
2009,11,10,04,29,0.00
2009,11,10,04,30,0.00
2009,11,10,04,31,0.00
2009,11,10,04,32,0.00
2009,11,10,04,33,0.00
2009,11,10,04,34,0.00
2009,11,10,04,35,0.00
2009,11,10,04,36,0.00
2009,11,10,04,37,0.00
2009,11,10,04,38,0.00
2009,11,10,04,39,0.00
2009,11,10,04,40,0.00
2009,11,10,04,41,0.00
2009,11,10,04,42,0.00
2009,11,10,04,43,0.00
2009,11,10,04,44,0.00
2009,11,10,04,45,0.00
2009,11,10,04,46,0.00
2009,11,10,04,47,0.00
2009,11,10,04,48,0.00
2009,11,10,04,49,0.00
2009,11,10,04,50,0.00
2009,11,10,04,51,0.00
2009,11,10,04,52,0.00
2009,11,10,04,53,0.00
2009,11,10,04,54,0.00
2009,11,10,04,55,0.00
2009,11,10,04,56,0.00
2009,11,10,04,57,0.00
2009,11,10,04,58,0.00
2009,11,10,04,59,0.00
2009,11,10,05,00,0.00
2009,11,10,05,01,0.00
2009,11,10,05,02,0.00
2009,11,10,05,03,0.00
2009,11,10,05,04,0.00
2009,11,10,05,05,0.00
2009,11,10,05,06,0.00
2009,11,10,05,07,0.00
2009,11,10,05,08,0.00
2009,11,10,05,09,0.00
2009,11,10,05,10,0.00
2009,11,10,05,11,0.00
2009,11,10,05,12,0.00
2009,11,10,05,13,0.00
2009,11,10,05,14,0.00
2009,11,10,05,15,0.00
2009,11,10,05,16,0.00
2009,11,10,05,17,0.00
2009,11,10,05,18,0.00
2009,11,10,05,19,0.00
2009,11,10,05,20,0.00
2009,11,10,05,21,0.00
2009,11,10,05,22,0.00
2009,11,10,05,23,0.00
2009,11,10,05,24,0.00
2009,11,10,05,25,0.00
2009,11,10,05,26,0.00
2009,11,10,05,27,0.00
2009,11,10,05,28,0.00
2009,11,10,05,29,0.00
2009,11,10,05,30,0.00
2009,11,10,05,31,0.00
2009,11,10,05,32,0.00
2009,11,10,05,33,0.00
2009,11,10,05,34,0.00
2009,11,10,05,35,0.00
2009,11,10,05,36,0.00
2009,11,10,05,37,0.00
2009,11,10,05,38,0.00
2009,11,10,05,39,0.00
2009,11,10,05,40,0.00
2009,11,10,05,41,0.00
2009,11,10,05,42,0.00
2009,11,10,05,43,0.00
2009,11,10,05,44,0.00
2009,11,10,05,45,0.00
2009,11,10,05,46,0.00
2009,11,10,05,47,0.00
2009,11,10,05,48,0.00
2009,11,10,05,49,0.00
2009,11,10,05,50,0.00
2009,11,10,05,51,0.00
2009,11,10,05,52,0.00
2009,11,10,05,53,0.00
2009,11,10,05,54,0.00
2009,11,10,05,55,0.00
2009,11,10,05,56,0.00
2009,11,10,05,57,0.00
2009,11,10,05,58,0.00
2009,11,10,05,59,0.00
2009,11,10,06,00,0.00
2009,11,10,06,01,0.00
2009,11,10,06,02,0.00
2009,11,10,06,03,0.00
2009,11,10,06,04,0.00
2009,11,10,06,05,0.00
2009,11,10,06,06,0.00
2009,11,10,06,07,0.00
2009,11,10,06,08,0.00
2009,11,10,06,09,0.00
2009,11,10,06,10,0.00
2009,11,10,06,11,0.00
2009,11,10,06,12,0.00
2009,11,10,06,13,0.00
2009,11,10,06,14,0.00
2009,11,10,06,15,0.00
2009,11,10,06,16,0.00
2009,11,10,06,17,0.00
2009,11,10,06,18,0.00
2009,11,10,06,19,0.00
2009,11,10,06,20,0.00
2009,11,10,06,21,0.00
2009,11,10,06,22,0.00
2009,11,10,06,23,0.00
2009,11,10,06,24,0.00
2009,11,10,06,25,0.00
2009,11,10,06,26,0.00
2009,11,10,06,27,0.00
2009,11,10,06,28,0.00
2009,11,10,06,29,0.00
2009,11,10,06,30,0.00
2009,11,10,06,31,0.00
2009,11,10,06,32,0.00
2009,11,10,06,33,0.00
2009,11,10,06,34,0.00
2009,11,10,06,35,0.00
2009,11,10,06,36,0.00
2009,11,10,06,37,0.00
2009,11,10,06,38,0.00
2009,11,10,06,39,0.00
2009,11,10,06,40,0.00
2009,11,10,06,41,0.00
2009,11,10,06,42,0.00
2009,11,10,06,43,0.00
2009,11,10,06,44,0.00
2009,11,10,06,45,0.00
2009,11,10,06,46,0.00
2009,11,10,06,47,0.00
2009,11,10,06,48,0.00
2009,11,10,06,49,0.00
2009,11,10,06,50,0.00
2009,11,10,06,51,0.00
2009,11,10,06,52,0.00
2009,11,10,06,53,0.00
2009,11,10,06,54,0.00
2009,11,10,06,55,0.00
2009,11,10,06,56,0.00
2009,11,10,06,57,0.00
2009,11,10,06,58,0.00
2009,11,10,06,59,0.00
2009,11,10,07,00,0.00
2009,11,10,07,01,0.00
2009,11,10,07,02,0.00
2009,11,10,07,03,0.00
2009,11,10,07,04,0.00
2009,11,10,07,05,0.00
2009,11,10,07,06,0.00
2009,11,10,07,07,0.00
2009,11,10,07,08,0.00
2009,11,10,07,09,0.00
2009,11,10,07,10,0.00
2009,11,10,07,11,0.00
2009,11,10,07,12,0.00
2009,11,10,07,13,0.00
2009,11,10,07,14,0.00
2009,11,10,07,15,0.00
2009,11,10,07,16,0.00
2009,11,10,07,17,0.00
2009,11,10,07,18,0.00
2009,11,10,07,19,0.00
2009,11,10,07,20,3.40
2009,11,10,07,21,5.00
2009,11,10,07,22,5.00
2009,11,10,07,23,5.00
2009,11,10,07,24,5.90
2009,11,10,07,25,7.00
2009,11,10,07,26,7.00
2009,11,10,07,27,7.00
2009,11,10,07,28,7.00
2009,11,10,07,29,7.00
2009,11,10,07,30,7.00
2009,11,10,07,31,8.20
2009,11,10,07,32,9.00
2009,11,10,07,33,9.00
2009,11,10,07,34,11.00
2009,11,10,07,35,11.00
2009,11,10,07,36,11.00
2009,11,10,07,37,11.00
2009,11,10,07,38,11.00
2009,11,10,07,39,11.00
2009,11,10,07,40,9.00
2009,11,10,07,41,9.70
2009,11,10,07,42,11.00
2009,11,10,07,43,11.00
2009,11,10,07,44,11.00
2009,11,10,07,45,11.00
2009,11,10,07,46,11.00
2009,11,10,07,47,11.00
2009,11,10,07,48,11.00
2009,11,10,07,49,11.60
2009,11,10,07,50,15.20
2009,11,10,07,51,18.90
2009,11,10,07,52,25.20
2009,11,10,07,53,25.70
2009,11,10,07,54,25.00
2009,11,10,07,55,25.00
2009,11,10,07,56,25.70
2009,11,10,07,57,28.50
2009,11,10,07,58,33.00
2009,11,10,07,59,33.70
2009,11,10,08,00,36.00
2009,11,10,08,01,38.20
2009,11,10,08,02,35.60
2009,11,10,08,03,32.10
2009,11,10,08,04,32.20
2009,11,10,08,05,36.50
2009,11,10,08,06,35.20
2009,11,10,08,07,40.60
2009,11,10,08,08,40.40
2009,11,10,08,09,57.20
2009,11,10,08,10,85.40
2009,11,10,08,11,74.00
2009,11,10,08,12,78.30
2009,11,10,08,13,93.30
2009,11,10,08,14,121.20
2009,11,10,08,15,111.90
2009,11,10,08,16,93.70
2009,11,10,08,17,86.10
2009,11,10,08,18,65.60
2009,11,10,08,19,50.10
2009,11,10,08,20,47.20
2009,11,10,08,21,47.30
2009,11,10,08,22,49.60
2009,11,10,08,23,51.90
2009,11,10,08,24,54.70
2009,11,10,08,25,57.40
2009,11,10,08,26,59.90
2009,11,10,08,27,62.40
2009,11,10,08,28,66.20
2009,11,10,08,29,70.40
2009,11,10,08,30,74.30
2009,11,10,08,31,74.40
2009,11,10,08,32,73.90
2009,11,10,08,33,71.60
2009,11,10,08,34,68.90
2009,11,10,08,35,64.90
2009,11,10,08,36,62.40
2009,11,10,08,37,60.50
2009,11,10,08,38,60.20
2009,11,10,08,39,63.80
2009,11,10,08,40,68.80
2009,11,10,08,41,74.00
2009,11,10,08,42,79.40
2009,11,10,08,43,85.30
2009,11,10,08,44,94.40
2009,11,10,08,45,88.00
2009,11,10,08,46,86.70
2009,11,10,08,47,79.80
2009,11,10,08,48,67.80
2009,11,10,08,49,59.60
2009,11,10,08,50,52.80
2009,11,10,08,51,51.80
2009,11,10,08,52,57.30
2009,11,10,08,53,70.00
2009,11,10,08,54,94.20
2009,11,10,08,55,140.00
2009,11,10,08,56,139.90
2009,11,10,08,57,145.10
2009,11,10,08,58,148.40
2009,11,10,08,59,155.00
2009,11,10,09,00,163.80
2009,11,10,09,01,174.20
2009,11,10,09,02,216.60
2009,11,10,09,03,192.60
2009,11,10,09,04,171.30
2009,11,10,09,05,146.20
2009,11,10,09,06,136.30
2009,11,10,09,07,125.40
2009,11,10,09,08,118.90
2009,11,10,09,09,110.90
2009,11,10,09,10,102.60
2009,11,10,09,11,98.70
2009,11,10,09,12,95.70
2009,11,10,09,13,93.00
2009,11,10,09,14,90.10
2009,11,10,09,15,85.00
2009,11,10,09,16,83.50
2009,11,10,09,17,85.20
2009,11,10,09,18,86.00
2009,11,10,09,19,86.00
2009,11,10,09,20,86.40
2009,11,10,09,21,88.00
2009,11,10,09,22,86.90
2009,11,10,09,23,86.00
2009,11,10,09,24,86.00
2009,11,10,09,25,86.10
2009,11,10,09,26,88.50
2009,11,10,09,27,90.40
2009,11,10,09,28,92.00
2009,11,10,09,29,93.00
2009,11,10,09,30,90.60
2009,11,10,09,31,85.70
2009,11,10,09,32,81.90
2009,11,10,09,33,77.70
2009,11,10,09,34,74.90
2009,11,10,09,35,74.00
2009,11,10,09,36,75.60
2009,11,10,09,37,79.10
2009,11,10,09,38,81.90
2009,11,10,09,39,84.00
2009,11,10,09,40,84.00
2009,11,10,09,41,85.50
2009,11,10,09,42,84.30
2009,11,10,09,43,84.00
2009,11,10,09,44,84.00
2009,11,10,09,45,84.00
2009,11,10,09,46,84.00
2009,11,10,09,47,84.00
2009,11,10,09,48,84.00
2009,11,10,09,49,82.70
2009,11,10,09,50,81.00
2009,11,10,09,51,80.10
2009,11,10,09,52,79.00
2009,11,10,09,53,77.40
2009,11,10,09,54,75.90
2009,11,10,09,55,71.50
2009,11,10,09,56,67.70
2009,11,10,09,57,63.60
2009,11,10,09,58,59.20
2009,11,10,09,59,56.50
2009,11,10,10,00,56.20
2009,11,10,10,01,58.80
2009,11,10,10,02,63.10
2009,11,10,10,03,67.10
2009,11,10,10,04,70.80
2009,11,10,10,05,72.00
2009,11,10,10,06,75.60
2009,11,10,10,07,76.00
2009,11,10,10,08,76.40
2009,11,10,10,09,77.00
2009,11,10,10,10,77.00
2009,11,10,10,11,77.00
2009,11,10,10,12,75.80
2009,11,10,10,13,73.60
2009,11,10,10,14,71.30
2009,11,10,10,15,68.30
2009,11,10,10,16,64.30
2009,11,10,10,17,60.30
2009,11,10,10,18,57.80
2009,11,10,10,19,55.50
2009,11,10,10,20,53.60
2009,11,10,10,21,50.90
2009,11,10,10,22,49.00
2009,11,10,10,23,47.30
2009,11,10,10,24,46.10
2009,11,10,10,25,47.60
2009,11,10,10,26,49.00
2009,11,10,10,27,51.60
2009,11,10,10,28,53.00
2009,11,10,10,29,54.00
2009,11,10,10,30,56.30
2009,11,10,10,31,58.60
2009,11,10,10,32,60.00
2009,11,10,10,33,60.00
2009,11,10,10,34,60.00
2009,11,10,10,35,61.70
2009,11,10,10,36,61.60
2009,11,10,10,37,60.00
2009,11,10,10,38,59.10
2009,11,10,10,39,55.30
2009,11,10,10,40,53.30
2009,11,10,10,41,51.00
2009,11,10,10,42,48.40
2009,11,10,10,43,45.30
2009,11,10,10,44,43.00
2009,11,10,10,45,42.00
2009,11,10,10,46,40.30
2009,11,10,10,47,39.00
2009,11,10,10,48,38.50
2009,11,10,10,49,36.20
2009,11,10,10,50,35.00
2009,11,10,10,51,35.00
2009,11,10,10,52,33.30
2009,11,10,10,53,32.90
2009,11,10,10,54,32.00
2009,11,10,10,55,31.20
2009,11,10,10,56,28.90
2009,11,10,10,57,26.70
2009,11,10,10,58,26.00
2009,11,10,10,59,26.00
2009,11,10,11,00,25.70
2009,11,10,11,01,25.00
2009,11,10,11,02,25.00
2009,11,10,11,03,25.00
2009,11,10,11,04,25.00
2009,11,10,11,05,25.00
2009,11,10,11,06,25.00
2009,11,10,11,07,25.00
2009,11,10,11,08,25.00
2009,11,10,11,09,25.00
2009,11,10,11,10,25.00
2009,11,10,11,11,26.00
2009,11,10,11,12,26.00
2009,11,10,11,13,27.00
2009,11,10,11,14,29.20
2009,11,10,11,15,31.50
2009,11,10,11,16,32.00
2009,11,10,11,17,33.00
2009,11,10,11,18,33.00
2009,11,10,11,19,33.00
2009,11,10,11,20,33.00
2009,11,10,11,21,32.20
2009,11,10,11,22,32.00
2009,11,10,11,23,32.00
2009,11,10,11,24,32.40
2009,11,10,11,25,33.00
2009,11,10,11,26,33.00
2009,11,10,11,27,33.00
2009,11,10,11,28,33.00
2009,11,10,11,29,33.00
2009,11,10,11,30,33.00
2009,11,10,11,31,33.00
2009,11,10,11,32,33.00
2009,11,10,11,33,33.00
2009,11,10,11,34,35.00
2009,11,10,11,35,36.20
2009,11,10,11,36,40.80
2009,11,10,11,37,44.20
2009,11,10,11,38,46.70
2009,11,10,11,39,48.70
2009,11,10,11,40,49.00
2009,11,10,11,41,49.00
2009,11,10,11,42,49.80
2009,11,10,11,43,49.90
2009,11,10,11,44,49.00
2009,11,10,11,45,46.30
2009,11,10,11,46,44.00
2009,11,10,11,47,44.00
2009,11,10,11,48,44.00
2009,11,10,11,49,44.00
2009,11,10,11,50,44.00
2009,11,10,11,51,44.00
2009,11,10,11,52,46.10
2009,11,10,11,53,48.20
2009,11,10,11,54,52.00
2009,11,10,11,55,53.60
2009,11,10,11,56,53.20
2009,11,10,11,57,51.30
2009,11,10,11,58,46.50
2009,11,10,11,59,43.40
2009,11,10,12,00,40.70
2009,11,10,12,01,37.80
2009,11,10,12,02,35.40
2009,11,10,12,03,35.00
2009,11,10,12,04,35.00
2009,11,10,12,05,34.30
2009,11,10,12,06,33.00
2009,11,10,12,07,32.30
2009,11,10,12,08,32.00
2009,11,10,12,09,30.00
2009,11,10,12,10,29.50
2009,11,10,12,11,28.00
2009,11,10,12,12,28.00
2009,11,10,12,13,28.00
2009,11,10,12,14,29.60
2009,11,10,12,15,30.20
2009,11,10,12,16,32.00
2009,11,10,12,17,32.40
2009,11,10,12,18,33.00
2009,11,10,12,19,33.00
2009,11,10,12,20,33.00
2009,11,10,12,21,33.20
2009,11,10,12,22,35.50
2009,11,10,12,23,37.90
2009,11,10,12,24,39.50
2009,11,10,12,25,39.20
2009,11,10,12,26,39.00
2009,11,10,12,27,37.00
2009,11,10,12,28,36.30
2009,11,10,12,29,35.00
2009,11,10,12,30,35.00
2009,11,10,12,31,35.00
2009,11,10,12,32,36.90
2009,11,10,12,33,39.20
2009,11,10,12,34,40.00
2009,11,10,12,35,40.00
2009,11,10,12,36,40.00
2009,11,10,12,37,40.00
2009,11,10,12,38,40.00
2009,11,10,12,39,38.60
2009,11,10,12,40,36.30
2009,11,10,12,41,34.00
2009,11,10,12,42,33.00
2009,11,10,12,43,32.20
2009,11,10,12,44,30.00
2009,11,10,12,45,27.60
2009,11,10,12,46,26.00
2009,11,10,12,47,27.00
2009,11,10,12,48,29.20
2009,11,10,12,49,32.50
2009,11,10,12,50,40.50
2009,11,10,12,51,47.60
2009,11,10,12,52,56.30
2009,11,10,12,53,65.70
2009,11,10,12,54,71.00
2009,11,10,12,55,73.60
2009,11,10,12,56,72.00
2009,11,10,12,57,70.00
2009,11,10,12,58,69.60
2009,11,10,12,59,69.00
2009,11,10,13,00,69.70
2009,11,10,13,01,73.40
2009,11,10,13,02,77.20
2009,11,10,13,03,83.10
2009,11,10,13,04,90.10
2009,11,10,13,05,98.40
2009,11,10,13,06,105.60
2009,11,10,13,07,112.20
2009,11,10,13,08,114.00
2009,11,10,13,09,115.10
2009,11,10,13,10,118.90
2009,11,10,13,11,120.00
2009,11,10,13,12,115.60
2009,11,10,13,13,106.20
2009,11,10,13,14,93.70
2009,11,10,13,15,84.00
2009,11,10,13,16,76.50
2009,11,10,13,17,72.80
2009,11,10,13,18,72.00
2009,11,10,13,19,72.00
2009,11,10,13,20,76.20
2009,11,10,13,21,77.00
2009,11,10,13,22,77.00
2009,11,10,13,23,76.30
2009,11,10,13,24,74.50
2009,11,10,13,25,72.10
2009,11,10,13,26,73.10
2009,11,10,13,27,79.50
2009,11,10,13,28,90.50
2009,11,10,13,29,105.80
2009,11,10,13,30,121.30
2009,11,10,13,31,126.50
2009,11,10,13,32,123.10
2009,11,10,13,33,112.70
2009,11,10,13,34,105.50
2009,11,10,13,35,107.40
2009,11,10,13,36,121.10
2009,11,10,13,37,125.00
2009,11,10,13,38,126.60
2009,11,10,13,39,135.50
2009,11,10,13,40,150.70
2009,11,10,13,41,165.10
2009,11,10,13,42,177.10
2009,11,10,13,43,207.30
2009,11,10,13,44,140.70
2009,11,10,13,45,130.30
2009,11,10,13,46,126.40
2009,11,10,13,47,123.50
2009,11,10,13,48,123.00
2009,11,10,13,49,130.80
2009,11,10,13,50,142.00
2009,11,10,13,51,150.20
2009,11,10,13,52,150.50
2009,11,10,13,53,146.70
2009,11,10,13,54,141.50
2009,11,10,13,55,133.30
2009,11,10,13,56,136.70
2009,11,10,13,57,145.30
2009,11,10,13,58,139.00
2009,11,10,13,59,130.50
2009,11,10,14,00,127.10
2009,11,10,14,01,122.50
2009,11,10,14,02,118.60
2009,11,10,14,03,113.60
2009,11,10,14,04,108.40
2009,11,10,14,05,105.50
2009,11,10,14,06,104.00
2009,11,10,14,07,104.80
2009,11,10,14,08,108.50
2009,11,10,14,09,112.60
2009,11,10,14,10,118.20
2009,11,10,14,11,120.90
2009,11,10,14,12,122.90
2009,11,10,14,13,123.50
2009,11,10,14,14,125.00
2009,11,10,14,15,123.90
2009,11,10,14,16,119.60
2009,11,10,14,17,108.60
2009,11,10,14,18,93.70
2009,11,10,14,19,80.90
2009,11,10,14,20,72.00
2009,11,10,14,21,67.90
2009,11,10,14,22,67.00
2009,11,10,14,23,68.80
2009,11,10,14,24,70.50
2009,11,10,14,25,74.90
2009,11,10,14,26,78.70
2009,11,10,14,27,79.80
2009,11,10,14,28,76.70
2009,11,10,14,29,71.00
2009,11,10,14,30,62.20
2009,11,10,14,31,56.90
2009,11,10,14,32,54.00
2009,11,10,14,33,55.30
2009,11,10,14,34,56.00
2009,11,10,14,35,62.40
2009,11,10,14,36,68.00
2009,11,10,14,37,73.30
2009,11,10,14,38,76.00
2009,11,10,14,39,72.50
2009,11,10,14,40,63.70
2009,11,10,14,41,53.20
2009,11,10,14,42,46.40
2009,11,10,14,43,44.00
2009,11,10,14,44,45.40
2009,11,10,14,45,48.30
2009,11,10,14,46,49.00
2009,11,10,14,47,51.10
2009,11,10,14,48,54.00
2009,11,10,14,49,53.60
2009,11,10,14,50,53.00
2009,11,10,14,51,53.00
2009,11,10,14,52,53.00
2009,11,10,14,53,51.20
2009,11,10,14,54,51.00
2009,11,10,14,55,50.20
2009,11,10,14,56,49.00
2009,11,10,14,57,49.00
2009,11,10,14,58,47.30
2009,11,10,14,59,45.90
2009,11,10,15,00,43.50
2009,11,10,15,01,41.20
2009,11,10,15,02,40.00
2009,11,10,15,03,39.30
2009,11,10,15,04,39.00
2009,11,10,15,05,37.10
2009,11,10,15,06,37.00
2009,11,10,15,07,37.80
2009,11,10,15,08,39.00
2009,11,10,15,09,39.80
2009,11,10,15,10,41.80
2009,11,10,15,11,44.30
2009,11,10,15,12,48.10
2009,11,10,15,13,52.30
2009,11,10,15,14,55.20
2009,11,10,15,15,53.70
2009,11,10,15,16,47.60
2009,11,10,15,17,41.50
2009,11,10,15,18,37.90
2009,11,10,15,19,34.00
2009,11,10,15,20,32.40
2009,11,10,15,21,30.50
2009,11,10,15,22,28.20
2009,11,10,15,23,28.00
2009,11,10,15,24,28.70
2009,11,10,15,25,29.00
2009,11,10,15,26,28.00
2009,11,10,15,27,26.40
2009,11,10,15,28,26.00
2009,11,10,15,29,25.80
2009,11,10,15,30,25.00
2009,11,10,15,31,25.00
2009,11,10,15,32,25.00
2009,11,10,15,33,23.40
2009,11,10,15,34,23.00
2009,11,10,15,35,23.00
2009,11,10,15,36,23.00
2009,11,10,15,37,23.00
2009,11,10,15,38,21.60
2009,11,10,15,39,21.00
2009,11,10,15,40,20.80
2009,11,10,15,41,19.00
2009,11,10,15,42,18.60
2009,11,10,15,43,18.00
2009,11,10,15,44,18.00
2009,11,10,15,45,16.30
2009,11,10,15,46,13.80
2009,11,10,15,47,12.00
2009,11,10,15,48,12.00
2009,11,10,15,49,12.00
2009,11,10,15,50,12.00
2009,11,10,15,51,12.00
2009,11,10,15,52,12.00
2009,11,10,15,53,12.00
2009,11,10,15,54,11.50
2009,11,10,15,55,11.00
2009,11,10,15,56,11.00
2009,11,10,15,57,9.20
2009,11,10,15,58,7.00
2009,11,10,15,59,7.00
2009,11,10,16,00,7.00
2009,11,10,16,01,7.00
2009,11,10,16,02,7.00
2009,11,10,16,03,8.80
2009,11,10,16,04,9.00
2009,11,10,16,05,9.70
2009,11,10,16,06,11.00
2009,11,10,16,07,11.00
2009,11,10,16,08,9.50
2009,11,10,16,09,9.00
2009,11,10,16,10,9.00
2009,11,10,16,11,8.30
2009,11,10,16,12,7.00
2009,11,10,16,13,7.00
2009,11,10,16,14,7.00
2009,11,10,16,15,7.00
2009,11,10,16,16,7.00
2009,11,10,16,17,7.00
2009,11,10,16,18,7.00
2009,11,10,16,19,7.00
2009,11,10,16,20,7.00
2009,11,10,16,21,5.20
2009,11,10,16,22,5.00
2009,11,10,16,23,5.00
2009,11,10,16,24,5.00
2009,11,10,16,25,5.00
2009,11,10,16,26,5.00
2009,11,10,16,27,4.50
2009,11,10,16,28,0.00
2009,11,10,16,29,0.00
2009,11,10,16,30,0.00
2009,11,10,16,31,0.00
2009,11,10,16,32,0.00
2009,11,10,16,33,0.00
2009,11,10,16,34,0.00
2009,11,10,16,35,0.00
2009,11,10,16,36,0.00
2009,11,10,16,37,0.00
2009,11,10,16,38,0.00
2009,11,10,16,39,0.00
2009,11,10,16,40,0.00
2009,11,10,16,41,0.00
2009,11,10,16,42,0.00
2009,11,10,16,43,0.00
2009,11,10,16,44,0.00
2009,11,10,16,45,0.00
2009,11,10,16,46,0.00
2009,11,10,16,47,0.00
2009,11,10,16,48,0.00
2009,11,10,16,49,0.00
2009,11,10,16,50,0.00
2009,11,10,16,51,0.00
2009,11,10,16,52,0.00
2009,11,10,16,53,0.00
2009,11,10,16,54,0.00
2009,11,10,16,55,0.00
2009,11,10,16,56,0.00
2009,11,10,16,57,0.00
2009,11,10,16,58,0.00
2009,11,10,16,59,0.00
2009,11,10,17,00,0.00
2009,11,10,17,01,0.00
2009,11,10,17,02,0.00
2009,11,10,17,03,0.00
2009,11,10,17,04,0.00
2009,11,10,17,05,0.00
2009,11,10,17,06,0.00
2009,11,10,17,07,0.00
2009,11,10,17,08,0.00
2009,11,10,17,09,0.00
2009,11,10,17,10,0.00
2009,11,10,17,11,0.00
2009,11,10,17,12,0.00
2009,11,10,17,13,0.00
2009,11,10,17,14,0.00
2009,11,10,17,15,0.00
2009,11,10,17,16,0.00
2009,11,10,17,17,0.00
2009,11,10,17,18,0.00
2009,11,10,17,19,0.00
2009,11,10,17,20,0.00
2009,11,10,17,21,0.00
2009,11,10,17,22,0.00
2009,11,10,17,23,0.00
2009,11,10,17,24,0.00
2009,11,10,17,25,0.00
2009,11,10,17,26,0.00
2009,11,10,17,27,0.00
2009,11,10,17,28,0.00
2009,11,10,17,29,0.00
2009,11,10,17,30,0.00
2009,11,10,17,31,0.00
2009,11,10,17,32,0.00
2009,11,10,17,33,0.00
2009,11,10,17,34,0.00
2009,11,10,17,35,0.00
2009,11,10,17,36,0.00
2009,11,10,17,37,0.00
2009,11,10,17,38,0.00
2009,11,10,17,39,0.00
2009,11,10,17,40,0.00